contact:dominique.lefevre@mio.osupytheas.fr, maurice.libes@osupytheas.fr, didier.mallarino@osupytheas.fr
Project:EMSO http://www.emso-fr.org/EMSO-France
Depth: 2436.0 m
Title:EMSO Ligure Ouest : Data MII capteur AQUADOPP
Date,Latitude,Longitude,X_East,Y_North,Z_Up,Amplitude_X,Amplitude_Y,Amplitude_Z,Batterie,SoundSpeed,Heading,Pitch,Roll,Pressure,TIS,Speed,Direction
, degrees North, degrees East, m.s-1, m.s-1,m.s-1, 1, 1, 1, Volt, m.s-1, degree, degree, degree, dbar, degree_C, m.s-1, degree
2020-09-09T00:04:03,42.805,6.029,-0.006,-0.026,-0.002,105.0,110.0,102.0,13.4,1505.3,324.0,-0.7,1.8,2470.529,13.31,0.026,193.0
2020-09-09T00:07:03,42.805,6.029,-0.06,-0.012,-0.059,105.0,107.0,102.0,13.4,1505.3,323.7,-0.7,1.9,2470.494,13.32,0.061,258.7
2020-09-09T00:10:03,42.805,6.029,0.01,0.005,-0.002,106.0,107.0,101.0,13.3,1505.3,327.3,-0.7,1.8,2470.481,13.32,0.011,63.4
2020-09-09T00:13:03,42.805,6.029,-0.007,-0.033,-0.012,106.0,106.0,102.0,13.4,1505.3,326.4,-0.7,1.8,2470.501,13.32,0.033,192.0
2020-09-09T00:16:03,42.805,6.029,-0.008,-0.021,-0.065,104.0,107.0,103.0,13.4,1505.3,327.9,-0.7,1.8,2470.503,13.33,0.022,200.9
2020-09-09T00:19:03,42.805,6.029,-0.005,-0.01,-0.03,105.0,107.0,102.0,13.4,1505.3,326.5,-0.7,1.9,2470.458,13.33,0.011,206.6
2020-09-09T00:22:04,42.805,6.029,0.009,0.013,-0.008,104.0,108.0,102.0,13.4,1505.3,324.4,-0.7,1.8,2470.521,13.33,0.015,34.7
2020-09-09T00:25:03,42.805,6.029,0.0,0.006,-0.021,108.0,108.0,103.0,13.3,1505.3,327.2,-0.7,1.9,2470.46,13.33,0.006,0.0
2020-09-09T00:28:03,42.805,6.029,-0.005,0.0,-0.048,105.0,106.0,103.0,13.4,1505.3,327.5,-0.7,1.8,2470.483,13.33,0.005,270.0
2020-09-09T00:31:03,42.805,6.029,-0.002,-0.016,-0.038,105.0,107.0,101.0,13.4,1505.3,323.3,-0.7,1.8,2470.465,13.33,0.016,187.1
2020-09-09T00:34:04,42.805,6.029,0.019,-0.003,-0.048,106.0,107.0,104.0,13.3,1505.3,326.9,-0.7,1.8,2470.428,13.33,0.019,99.0
2020-09-09T00:37:03,42.805,6.029,0.004,-0.033,-0.048,105.0,107.0,103.0,13.4,1505.3,326.9,-0.7,1.8,2470.437,13.33,0.033,173.1
2020-09-09T00:40:03,42.805,6.029,0.0,-0.008,-0.012,104.0,109.0,102.0,13.4,1505.3,326.4,-0.7,1.8,2470.509,13.33,0.008,180.0
2020-09-09T00:43:03,42.805,6.029,-0.008,-0.029,-0.023,104.0,109.0,102.0,13.4,1505.3,327.1,-0.7,1.8,2470.44,13.33,0.03,195.4
2020-09-09T00:46:03,42.805,6.029,-0.008,-0.028,-0.028,106.0,108.0,102.0,13.3,1505.3,327.6,-0.7,1.8,2470.473,13.33,0.029,195.9
2020-09-09T00:49:03,42.805,6.029,-0.01,0.002,-0.039,105.0,109.0,102.0,13.4,1505.3,324.8,-0.7,1.8,2470.405,13.33,0.01,281.3
2020-09-09T00:52:03,42.805,6.029,-0.019,-0.018,-0.001,104.0,111.0,102.0,13.3,1505.3,323.3,-0.7,1.8,2470.423,13.33,0.026,226.5
2020-09-09T00:55:03,42.805,6.029,0.032,0.005,0.037,104.0,109.0,101.0,13.4,1505.3,324.7,-0.7,1.9,2470.43,13.33,0.032,81.1
2020-09-09T00:58:03,42.805,6.029,0.009,-0.011,-0.003,104.0,107.0,102.0,13.3,1505.3,324.9,-0.7,1.9,2470.45,13.33,0.014,140.7
2020-09-09T01:04:03,42.805,6.029,-0.041,-0.019,-0.045,106.0,109.0,103.0,13.4,1505.3,327.9,-0.7,1.8,2470.55,13.31,0.045,245.1
2020-09-09T01:07:03,42.805,6.029,-0.015,-0.002,-0.031,104.0,110.0,102.0,13.4,1505.3,325.0,-0.7,1.8,2470.451,13.32,0.015,262.4
2020-09-09T01:10:03,42.805,6.029,0.018,-0.02,-0.029,104.0,107.0,103.0,13.4,1505.3,325.1,-0.7,1.8,2470.413,13.32,0.026,138.0
2020-09-09T01:13:03,42.805,6.029,-0.012,-0.014,-0.068,104.0,108.0,102.0,13.3,1505.3,326.5,-0.7,1.8,2470.469,13.32,0.018,220.6
2020-09-09T01:16:03,42.805,6.029,-0.011,0.006,-0.011,104.0,108.0,101.0,13.4,1505.3,324.1,-0.7,1.8,2470.443,13.32,0.012,298.6
2020-09-09T01:19:03,42.805,6.029,-0.02,-0.033,-0.036,105.0,110.0,101.0,13.3,1505.3,325.6,-0.7,1.8,2470.476,13.33,0.038,211.2
2020-09-09T01:22:03,42.805,6.029,-0.011,-0.023,-0.028,105.0,107.0,103.0,13.4,1505.3,324.6,-0.7,1.8,2470.423,13.33,0.025,205.6
2020-09-09T01:25:03,42.805,6.029,-0.025,-0.024,-0.041,105.0,109.0,102.0,13.4,1505.3,325.9,-0.7,1.8,2470.433,13.33,0.034,226.2
2020-09-09T01:28:03,42.805,6.029,-0.045,0.004,-0.083,104.0,108.0,102.0,13.4,1505.3,323.0,-0.7,1.9,2470.41,13.33,0.045,275.1
2020-09-09T01:31:03,42.805,6.029,0.019,0.007,0.04,105.0,105.0,102.0,13.3,1505.3,328.1,-0.7,1.8,2470.393,13.33,0.02,69.8
2020-09-09T01:34:03,42.805,6.029,0.014,-0.019,-0.034,105.0,107.0,101.0,13.4,1505.3,324.6,-0.7,1.8,2470.444,13.33,0.023,143.6
2020-09-09T01:37:03,42.805,6.029,0.016,0.0,0.011,106.0,110.0,103.0,13.4,1505.3,324.9,-0.7,1.9,2470.44,13.33,0.016,90.0
2020-09-09T01:40:03,42.805,6.029,-0.006,0.005,-0.004,104.0,109.0,102.0,13.3,1505.3,326.3,-0.7,1.8,2470.44,13.33,0.007,309.8
2020-09-09T01:43:03,42.805,6.029,-0.026,-0.011,-0.034,103.0,109.0,103.0,13.4,1505.3,327.0,-0.7,1.8,2470.389,13.33,0.028,247.1
2020-09-09T01:46:03,42.805,6.029,-0.027,0.001,-0.018,104.0,109.0,103.0,13.3,1505.3,324.5,-0.7,1.8,2470.465,13.33,0.027,272.1
2020-09-09T01:49:03,42.805,6.029,-0.044,-0.012,-0.079,103.0,110.0,101.0,13.4,1505.3,328.2,-0.7,1.8,2470.403,13.33,0.045,254.7
2020-09-09T01:52:04,42.805,6.029,-0.009,-0.027,-0.013,103.0,107.0,103.0,13.4,1505.3,325.4,-0.7,1.8,2470.412,13.33,0.028,198.4
2020-09-09T01:55:03,42.805,6.029,-0.027,-0.013,-0.025,105.0,108.0,102.0,13.4,1505.3,323.4,-0.7,1.8,2470.398,13.33,0.029,244.3
2020-09-09T01:58:03,42.805,6.029,0.013,-0.004,-0.021,105.0,108.0,103.0,13.4,1505.3,323.3,-0.7,1.9,2470.435,13.33,0.013,107.1
2020-09-09T02:04:03,42.805,6.029,0.036,-0.031,0.009,104.0,107.0,102.0,13.4,1505.3,327.9,-0.8,1.8,2470.395,13.31,0.047,130.7
2020-09-09T02:07:03,42.805,6.029,0.017,-0.003,-0.026,105.0,107.0,103.0,13.4,1505.3,326.7,-0.7,1.8,2470.439,13.32,0.017,100.0
2020-09-09T02:10:03,42.805,6.029,0.037,-0.01,0.033,104.0,108.0,103.0,13.4,1505.3,326.9,-0.7,1.9,2470.44,13.32,0.038,105.1
2020-09-09T02:13:03,42.805,6.029,0.022,0.002,0.005,103.0,110.0,101.0,13.3,1505.3,324.8,-0.7,1.8,2470.46,13.32,0.022,84.8
2020-09-09T02:16:03,42.805,6.029,0.001,-0.008,-0.019,104.0,106.0,102.0,13.3,1505.3,325.1,-0.7,1.8,2470.454,13.32,0.008,172.9
2020-09-09T02:19:03,42.805,6.029,0.056,0.013,0.067,103.0,106.0,101.0,13.3,1505.3,325.3,-0.7,1.8,2470.403,13.33,0.057,76.9
2020-09-09T02:22:03,42.805,6.029,0.052,-0.008,0.024,104.0,108.0,101.0,13.3,1505.3,322.8,-0.7,1.8,2470.421,13.33,0.052,98.7
2020-09-09T02:25:03,42.805,6.029,0.034,0.001,0.038,104.0,107.0,101.0,13.4,1505.3,325.7,-0.7,1.8,2470.373,13.33,0.034,88.3
2020-09-09T02:28:03,42.805,6.029,0.066,-0.011,0.044,105.0,107.0,103.0,13.4,1505.3,324.3,-0.7,1.8,2470.432,13.33,0.066,99.5
2020-09-09T02:31:03,42.805,6.029,0.052,0.002,0.014,105.0,109.0,103.0,13.4,1505.3,324.6,-0.7,1.8,2470.375,13.33,0.052,87.8
2020-09-09T02:34:03,42.805,6.029,0.018,0.003,0.007,105.0,110.0,102.0,13.4,1505.3,327.7,-0.7,1.8,2470.384,13.33,0.018,80.5
2020-09-09T02:37:03,42.805,6.029,0.018,0.0,0.016,104.0,109.0,102.0,13.3,1505.3,325.1,-0.7,1.9,2470.401,13.33,0.018,90.0
2020-09-09T02:43:03,42.805,6.029,0.028,0.003,-0.014,102.0,107.0,101.0,13.4,1505.3,324.7,-0.8,1.9,2470.437,13.31,0.028,83.9
2020-09-09T02:46:03,42.805,6.029,0.025,-0.018,0.025,105.0,109.0,101.0,13.3,1505.3,325.4,-0.7,1.8,2470.391,13.31,0.03,125.8
2020-09-09T02:49:03,42.805,6.029,0.051,-0.009,0.037,104.0,108.0,102.0,13.4,1505.3,328.1,-0.7,1.8,2470.42,13.32,0.051,100.0
2020-09-09T02:52:03,42.805,6.029,0.049,-0.003,0.001,105.0,107.0,101.0,13.4,1505.3,327.5,-0.7,1.8,2470.425,13.32,0.049,93.5
2020-09-09T02:55:03,42.805,6.029,0.013,-0.011,-0.008,104.0,109.0,102.0,13.4,1505.3,328.0,-0.7,1.8,2470.417,13.33,0.017,130.2
2020-09-09T02:58:03,42.805,6.029,0.013,0.006,-0.003,104.0,108.0,101.0,13.4,1505.3,326.7,-0.7,1.8,2470.43,13.33,0.014,65.2
2020-09-09T03:04:03,42.805,6.029,0.036,0.0,0.019,105.0,107.0,103.0,13.4,1505.3,326.1,-0.7,1.8,2470.418,13.31,0.036,90.0
2020-09-09T03:07:03,42.805,6.029,0.038,0.006,0.022,104.0,108.0,102.0,13.4,1505.3,327.7,-0.7,1.8,2470.446,13.31,0.038,81.0
2020-09-09T03:10:03,42.805,6.029,0.047,0.0,0.023,104.0,106.0,102.0,13.3,1505.3,327.7,-0.7,1.8,2470.428,13.32,0.047,90.0
2020-09-09T03:13:03,42.805,6.029,0.047,0.004,0.016,105.0,108.0,101.0,13.4,1505.3,325.0,-0.7,1.8,2470.428,13.32,0.047,85.1
2020-09-09T03:16:04,42.805,6.029,-0.003,0.013,-0.005,105.0,108.0,102.0,13.4,1505.3,326.0,-0.7,1.8,2470.404,13.32,0.013,347.0
2020-09-09T03:19:03,42.805,6.029,0.02,-0.01,0.0,105.0,108.0,104.0,13.3,1505.3,328.1,-0.7,1.8,2470.426,13.33,0.022,116.6
2020-09-09T03:22:04,42.805,6.029,0.007,-0.015,-0.021,105.0,106.0,101.0,13.4,1505.3,326.4,-0.7,1.8,2470.406,13.33,0.016,155.0
2020-09-09T03:25:03,42.805,6.029,0.058,0.0,0.034,106.0,108.0,102.0,13.4,1505.3,326.6,-0.8,1.8,2470.401,13.33,0.057,90.0
2020-09-09T03:28:03,42.805,6.029,0.025,0.011,0.0,105.0,108.0,101.0,13.4,1505.3,324.1,-0.7,1.9,2470.406,13.33,0.027,66.3
2020-09-09T03:31:03,42.805,6.029,-0.004,-0.005,0.003,103.0,109.0,101.0,13.4,1505.3,325.1,-0.7,1.8,2470.408,13.33,0.006,218.7
2020-09-09T03:34:03,42.805,6.029,0.044,0.012,0.017,105.0,108.0,102.0,13.3,1505.3,327.5,-0.7,1.9,2470.385,13.33,0.045,74.7
2020-09-09T03:37:04,42.805,6.029,0.02,0.008,-0.002,105.0,107.0,102.0,13.4,1505.3,324.4,-0.7,1.9,2470.361,13.33,0.021,68.2
2020-09-09T03:40:03,42.805,6.029,0.015,-0.02,0.02,104.0,110.0,103.0,13.4,1505.3,326.3,-0.7,1.8,2470.382,13.33,0.025,143.1
2020-09-09T03:43:03,42.805,6.029,0.022,-0.01,0.039,104.0,107.0,101.0,13.4,1505.3,325.7,-0.7,1.8,2470.403,13.33,0.024,114.4
2020-09-09T03:46:03,42.805,6.029,0.025,0.007,0.014,104.0,108.0,101.0,13.4,1505.3,327.9,-0.7,1.8,2470.407,13.33,0.025,74.4
2020-09-09T03:49:03,42.805,6.029,-0.01,-0.002,-0.049,105.0,109.0,103.0,13.4,1505.3,323.2,-0.7,1.8,2470.386,13.33,0.01,258.7
2020-09-09T03:52:03,42.805,6.029,-0.03,-0.016,-0.057,103.0,110.0,102.0,13.3,1505.3,325.8,-0.7,1.8,2470.363,13.33,0.034,241.9
2020-09-09T03:55:03,42.805,6.029,-0.022,-0.004,0.0,103.0,110.0,101.0,13.4,1505.3,325.0,-0.7,1.8,2470.329,13.33,0.022,259.7
2020-09-09T03:58:03,42.805,6.029,-0.015,-0.015,-0.044,104.0,108.0,102.0,13.4,1505.3,324.3,-0.7,1.8,2470.391,13.33,0.021,225.0
2020-09-09T04:04:03,42.805,6.029,-0.015,-0.007,-0.06,103.0,108.0,101.0,13.4,1505.3,327.9,-0.7,1.8,2470.416,13.31,0.016,245.0
2020-09-09T04:07:03,42.805,6.029,0.014,-0.009,0.01,102.0,108.0,101.0,13.4,1505.3,325.7,-0.7,1.9,2470.428,13.31,0.016,122.7
2020-09-09T04:10:03,42.805,6.029,0.001,0.018,-0.01,103.0,108.0,101.0,13.4,1505.3,324.2,-0.7,1.9,2470.403,13.32,0.018,3.2
2020-09-09T04:13:03,42.805,6.029,-0.006,-0.002,-0.005,104.0,108.0,102.0,13.3,1505.3,323.2,-0.7,1.8,2470.421,13.32,0.006,251.6
2020-09-09T04:16:03,42.805,6.029,0.017,0.001,-0.024,104.0,107.0,100.0,13.3,1505.3,326.5,-0.7,1.8,2470.379,13.32,0.017,86.6
2020-09-09T04:19:03,42.805,6.029,0.043,0.006,0.028,104.0,109.0,101.0,13.3,1505.3,327.1,-0.7,1.8,2470.353,13.33,0.043,82.1
2020-09-09T04:22:03,42.805,6.029,-0.022,0.004,-0.028,102.0,108.0,100.0,13.4,1505.3,324.6,-0.7,1.8,2470.361,13.33,0.022,280.3
2020-09-09T04:25:03,42.805,6.029,-0.062,-0.001,-0.074,102.0,106.0,101.0,13.4,1505.3,325.2,-0.7,1.8,2470.376,13.33,0.062,269.1
2020-09-09T04:28:03,42.805,6.029,0.021,-0.008,-0.028,103.0,107.0,100.0,13.4,1505.3,325.8,-0.7,1.9,2470.356,13.33,0.022,110.9
2020-09-09T04:31:03,42.805,6.029,0.036,-0.01,-0.021,104.0,106.0,101.0,13.4,1505.3,326.4,-0.7,1.8,2470.36,13.33,0.037,105.5
2020-09-09T04:34:03,42.805,6.029,0.012,0.002,0.03,104.0,107.0,101.0,13.3,1505.3,324.7,-0.7,1.8,2470.374,13.33,0.012,80.5
2020-09-09T04:37:03,42.805,6.029,0.004,0.005,-0.002,105.0,109.0,101.0,13.3,1505.3,324.1,-0.7,1.8,2470.386,13.33,0.006,38.7
2020-09-09T04:40:03,42.805,6.029,0.046,-0.009,0.0,104.0,108.0,103.0,13.4,1505.3,326.0,-0.7,1.8,2470.437,13.33,0.046,101.1
2020-09-09T04:43:03,42.805,6.029,0.05,0.002,0.023,102.0,108.0,100.0,13.3,1505.3,326.3,-0.7,1.8,2470.383,13.33,0.05,87.7
2020-09-09T04:46:03,42.805,6.029,-0.025,0.005,-0.029,103.0,108.0,102.0,13.4,1505.3,323.5,-0.7,1.9,2470.386,13.33,0.025,281.3
2020-09-09T04:49:04,42.805,6.029,0.045,0.0,0.018,103.0,108.0,100.0,13.4,1505.3,326.3,-0.7,1.8,2470.388,13.33,0.045,90.0
2020-09-09T04:52:03,42.805,6.029,0.018,0.003,0.005,103.0,108.0,102.0,13.4,1505.3,325.3,-0.7,1.8,2470.373,13.33,0.018,80.5
2020-09-09T04:55:03,42.805,6.029,0.014,0.006,0.033,103.0,108.0,101.0,13.4,1505.3,326.7,-0.7,1.8,2470.364,13.33,0.015,66.8
2020-09-09T04:58:03,42.805,6.029,-0.008,-0.025,-0.018,104.0,107.0,101.0,13.3,1505.3,324.8,-0.7,1.9,2470.355,13.33,0.026,197.7
2020-09-09T05:04:03,42.805,6.029,0.018,-0.009,-0.032,104.0,108.0,102.0,13.4,1505.3,323.8,-0.8,1.8,2470.415,13.31,0.02,116.6
2020-09-09T05:07:03,42.805,6.029,-0.023,-0.014,-0.044,103.0,106.0,101.0,13.3,1505.3,325.3,-0.7,1.8,2470.378,13.31,0.026,238.7
2020-09-09T05:10:03,42.805,6.029,-0.02,0.007,-0.03,103.0,106.0,102.0,13.4,1505.3,324.4,-0.7,1.9,2470.416,13.32,0.021,289.3
2020-09-09T05:13:03,42.805,6.029,-0.03,-0.005,-0.064,103.0,106.0,101.0,13.4,1505.3,327.7,-0.7,1.8,2470.374,13.32,0.03,260.5
2020-09-09T05:16:03,42.805,6.029,-0.017,-0.018,-0.057,105.0,110.0,101.0,13.4,1505.3,327.5,-0.7,1.8,2470.413,13.32,0.024,223.4
2020-09-09T05:19:03,42.805,6.029,-0.036,0.002,-0.055,103.0,108.0,102.0,13.3,1505.3,325.3,-0.7,1.9,2470.377,13.32,0.036,273.2
2020-09-09T05:22:03,42.805,6.029,0.017,-0.012,0.004,104.0,107.0,101.0,13.4,1505.3,327.5,-0.7,1.8,2470.372,13.33,0.02,125.2
2020-09-09T05:25:03,42.805,6.029,-0.023,-0.006,-0.037,103.0,109.0,103.0,13.4,1505.3,327.5,-0.7,1.8,2470.371,13.33,0.023,255.4
2020-09-09T05:28:03,42.805,6.029,-0.005,-0.004,-0.032,103.0,108.0,103.0,13.3,1505.3,324.2,-0.7,1.8,2470.362,13.33,0.006,231.3
2020-09-09T05:31:03,42.805,6.029,0.006,0.0,-0.015,103.0,108.0,102.0,13.3,1505.3,327.1,-0.7,1.9,2470.334,13.33,0.006,90.0
2020-09-09T05:34:03,42.805,6.029,-0.028,0.008,-0.037,103.0,107.0,101.0,13.4,1505.3,325.0,-0.7,1.8,2470.381,13.33,0.029,285.9
2020-09-09T05:37:03,42.805,6.029,-0.005,-0.015,-0.007,103.0,106.0,102.0,13.3,1505.3,325.1,-0.7,1.8,2470.34,13.33,0.015,198.4
2020-09-09T05:40:03,42.805,6.029,0.034,-0.021,0.004,103.0,107.0,101.0,13.4,1505.3,327.8,-0.7,1.8,2470.346,13.33,0.039,121.7
2020-09-09T05:43:03,42.805,6.029,0.027,-0.012,-0.014,103.0,108.0,101.0,13.4,1505.3,323.8,-0.7,1.8,2470.374,13.33,0.029,114.0
2020-09-09T05:46:03,42.805,6.029,-0.001,-0.01,0.005,103.0,107.0,101.0,13.4,1505.3,323.7,-0.7,1.8,2470.401,13.33,0.01,185.7
2020-09-09T05:49:03,42.805,6.029,-0.03,0.007,-0.031,103.0,108.0,100.0,13.4,1505.3,326.5,-0.7,1.9,2470.339,13.33,0.03,283.1
2020-09-09T05:52:03,42.805,6.029,-0.03,-0.02,-0.056,102.0,107.0,102.0,13.3,1505.3,326.0,-0.7,1.8,2470.344,13.33,0.036,236.3
2020-09-09T05:55:03,42.805,6.029,0.01,0.009,-0.008,102.0,106.0,101.0,13.3,1505.3,326.3,-0.7,1.8,2470.373,13.33,0.013,48.0
2020-09-09T06:04:04,42.805,6.029,-0.017,-0.011,-0.058,103.0,107.0,102.0,13.4,1505.2,322.9,-0.8,1.8,2470.475,13.29,0.02,237.1
2020-09-09T06:07:03,42.805,6.029,-0.001,-0.008,-0.019,103.0,109.0,101.0,13.3,1505.3,326.9,-0.7,1.8,2470.439,13.31,0.008,187.1
2020-09-09T06:10:03,42.805,6.029,0.01,0.009,0.019,103.0,107.0,101.0,13.3,1505.3,325.8,-0.7,1.8,2470.462,13.31,0.013,48.0
2020-09-09T06:13:03,42.805,6.029,-0.011,0.018,-0.024,103.0,107.0,103.0,13.4,1505.3,325.7,-0.7,1.8,2470.383,13.32,0.021,328.6
2020-09-09T06:16:03,42.805,6.029,0.019,-0.011,0.016,104.0,109.0,101.0,13.4,1505.3,324.7,-0.7,1.8,2470.412,13.32,0.021,120.1
2020-09-09T06:19:03,42.805,6.029,-0.005,-0.01,-0.047,104.0,109.0,102.0,13.4,1505.3,328.4,-0.7,1.8,2470.43,13.32,0.011,206.6
2020-09-09T06:22:03,42.805,6.029,0.056,0.0,0.01,104.0,108.0,101.0,13.3,1505.3,324.9,-0.7,1.8,2470.416,13.32,0.056,90.0
2020-09-09T06:25:03,42.805,6.029,0.017,-0.007,-0.005,104.0,109.0,103.0,13.3,1505.3,323.5,-0.7,1.8,2470.382,13.32,0.018,112.4
2020-09-09T06:28:04,42.805,6.029,0.054,0.014,0.011,106.0,108.0,104.0,13.3,1505.3,325.1,-0.7,1.8,2470.404,13.32,0.055,75.5
2020-09-09T06:31:04,42.805,6.029,0.034,-0.002,-0.001,104.0,108.0,102.0,13.3,1505.3,323.0,-0.7,1.8,2470.406,13.32,0.034,93.4
2020-09-09T06:34:03,42.805,6.029,-0.009,0.005,-0.032,103.0,108.0,102.0,13.4,1505.3,325.4,-0.7,1.8,2470.39,13.33,0.01,299.1
2020-09-09T06:37:03,42.805,6.029,-0.003,-0.011,-0.018,102.0,106.0,102.0,13.4,1505.3,325.9,-0.7,1.8,2470.395,13.33,0.011,195.3
2020-09-09T06:40:03,42.805,6.029,0.0,0.004,-0.004,104.0,108.0,101.0,13.4,1505.3,325.8,-0.7,1.8,2470.387,13.33,0.004,0.0
2020-09-09T06:43:03,42.805,6.029,0.064,0.005,0.074,103.0,107.0,101.0,13.3,1505.3,326.4,-0.7,1.8,2470.392,13.33,0.064,85.5
2020-09-09T06:46:03,42.805,6.029,0.008,-0.006,0.01,105.0,108.0,101.0,13.4,1505.3,324.1,-0.7,1.8,2470.401,13.33,0.01,126.9
2020-09-09T06:49:03,42.805,6.029,0.007,-0.013,-0.031,102.0,108.0,102.0,13.3,1505.3,327.7,-0.7,1.8,2470.386,13.33,0.014,151.7
2020-09-09T06:52:03,42.805,6.029,0.05,0.006,0.044,103.0,107.0,101.0,13.4,1505.3,327.6,-0.7,1.8,2470.368,13.33,0.05,83.2
2020-09-09T06:55:03,42.805,6.029,0.019,-0.008,-0.016,104.0,109.0,102.0,13.3,1505.3,327.2,-0.7,1.8,2470.354,13.33,0.02,112.8
2020-09-09T06:58:03,42.805,6.029,0.01,-0.004,0.004,102.0,107.0,102.0,13.4,1505.3,323.3,-0.7,1.8,2470.36,13.33,0.01,111.8
2020-09-09T07:04:03,42.805,6.029,0.006,0.01,-0.007,104.0,108.0,101.0,13.4,1505.3,323.4,-0.8,1.8,2470.401,13.31,0.011,31.0
2020-09-09T07:07:03,42.805,6.029,0.042,-0.006,0.015,104.0,108.0,102.0,13.4,1505.3,325.7,-0.7,1.8,2470.391,13.31,0.042,98.1
2020-09-09T07:10:03,42.805,6.029,0.06,0.0,0.024,105.0,109.0,101.0,13.4,1505.3,326.4,-0.7,1.8,2470.402,13.32,0.06,90.0
2020-09-09T07:16:03,42.805,6.029,0.025,-0.037,-0.004,103.0,109.0,101.0,13.4,1505.2,326.2,-0.8,1.8,2470.46,13.3,0.044,146.0
2020-09-09T07:19:03,42.805,6.029,0.024,-0.002,-0.02,104.0,107.0,102.0,13.4,1505.3,326.6,-0.7,1.8,2470.419,13.31,0.024,94.8
2020-09-09T07:22:03,42.805,6.029,0.045,0.012,0.038,104.0,108.0,104.0,13.4,1505.3,322.9,-0.7,1.9,2470.374,13.32,0.046,75.1
2020-09-09T07:25:03,42.805,6.029,0.024,-0.012,0.01,105.0,107.0,102.0,13.4,1505.3,325.4,-0.8,1.8,2470.376,13.32,0.026,116.6
2020-09-09T07:28:04,42.805,6.029,0.032,0.013,0.011,103.0,109.0,103.0,13.4,1505.3,324.5,-0.7,1.8,2470.425,13.32,0.034,67.9
2020-09-09T07:31:03,42.805,6.029,0.055,-0.007,-0.002,104.0,109.0,102.0,13.4,1505.3,325.9,-0.7,1.8,2470.395,13.32,0.055,97.3
2020-09-09T07:34:03,42.805,6.029,0.011,0.022,0.0,104.0,107.0,101.0,13.4,1505.3,323.0,-0.7,1.8,2470.399,13.32,0.024,26.6
2020-09-09T07:37:03,42.805,6.029,0.051,-0.012,-0.01,103.0,110.0,102.0,13.4,1505.3,324.4,-0.7,1.8,2470.455,13.32,0.052,103.2
2020-09-09T07:40:03,42.805,6.029,0.049,-0.001,-0.01,103.0,108.0,101.0,13.4,1505.3,326.1,-0.7,1.8,2470.417,13.32,0.049,91.2
2020-09-09T07:43:03,42.805,6.029,0.038,-0.013,-0.023,104.0,107.0,102.0,13.4,1505.3,325.4,-0.7,1.8,2470.392,13.32,0.04,108.9
2020-09-09T07:46:03,42.805,6.029,-0.005,0.011,-0.002,103.0,109.0,102.0,13.4,1505.3,324.0,-0.7,1.8,2470.381,13.32,0.012,335.6
2020-09-09T07:49:03,42.805,6.029,0.014,-0.013,0.009,106.0,108.0,101.0,13.4,1505.3,326.1,-0.7,1.8,2470.37,13.32,0.019,132.9
2020-09-09T07:52:03,42.805,6.029,0.033,-0.015,-0.02,104.0,108.0,101.0,13.4,1505.3,327.1,-0.7,1.8,2470.374,13.32,0.036,114.4
2020-09-09T07:55:03,42.805,6.029,0.022,-0.002,0.005,103.0,108.0,102.0,13.3,1505.3,328.0,-0.7,1.8,2470.384,13.32,0.022,95.2
2020-09-09T07:58:03,42.805,6.029,0.016,0.007,0.014,104.0,108.0,101.0,13.4,1505.3,326.6,-0.7,1.8,2470.388,13.32,0.017,66.4
2020-09-09T08:04:04,42.805,6.029,0.011,-0.015,-0.018,103.0,109.0,102.0,13.3,1505.2,326.6,-0.7,1.8,2470.469,13.3,0.018,143.7
2020-09-09T08:07:03,42.805,6.029,0.031,0.008,0.005,104.0,106.0,103.0,13.4,1505.3,327.8,-0.7,1.9,2470.409,13.31,0.032,75.5
2020-09-09T08:10:03,42.805,6.029,0.038,-0.005,-0.002,104.0,108.0,103.0,13.3,1505.3,327.0,-0.7,1.8,2470.419,13.32,0.038,97.5
2020-09-09T08:13:03,42.805,6.029,0.037,-0.005,0.042,106.0,111.0,103.0,13.4,1505.3,325.6,-0.7,1.8,2470.41,13.32,0.037,97.7
2020-09-09T08:16:03,42.805,6.029,0.03,-0.008,-0.004,107.0,108.0,103.0,13.4,1505.3,324.0,-0.7,1.8,2470.43,13.32,0.031,104.9
2020-09-09T08:19:04,42.805,6.029,0.043,0.001,0.018,104.0,108.0,104.0,13.4,1505.3,327.8,-0.7,1.8,2470.424,13.32,0.043,88.7
2020-09-09T08:22:03,42.805,6.029,0.045,0.006,0.011,103.0,108.0,102.0,13.4,1505.3,323.8,-0.7,1.9,2470.393,13.32,0.045,82.4
2020-09-09T08:25:03,42.805,6.029,0.032,0.003,0.012,104.0,108.0,102.0,13.4,1505.3,325.0,-0.7,1.8,2470.467,13.32,0.032,84.6
2020-09-09T08:28:03,42.805,6.029,0.041,-0.004,0.02,103.0,109.0,102.0,13.4,1505.3,326.5,-0.7,1.9,2470.452,13.32,0.041,95.6
2020-09-09T08:31:03,42.805,6.029,0.021,-0.016,-0.018,104.0,109.0,102.0,13.4,1505.3,327.1,-0.7,1.8,2470.446,13.32,0.026,127.3
2020-09-09T08:34:03,42.805,6.029,0.005,0.017,0.003,104.0,108.0,102.0,13.4,1505.3,325.2,-0.7,1.8,2470.415,13.32,0.017,16.4
2020-09-09T08:37:03,42.805,6.029,0.011,0.0,0.002,103.0,108.0,102.0,13.4,1505.3,326.3,-0.7,1.9,2470.407,13.32,0.011,90.0
2020-09-09T08:40:03,42.805,6.029,0.045,-0.018,-0.009,104.0,108.0,102.0,13.3,1505.3,328.1,-0.7,1.8,2470.39,13.32,0.048,111.8
2020-09-09T08:43:03,42.805,6.029,0.041,0.0,-0.016,104.0,108.0,102.0,13.4,1505.3,325.9,-0.7,1.8,2470.404,13.32,0.041,90.0
2020-09-09T08:46:05,42.805,6.029,0.021,0.008,-0.006,105.0,108.0,101.0,13.4,1505.3,326.2,-0.7,1.8,2470.435,13.32,0.022,69.1
2020-09-09T08:49:03,42.805,6.029,0.007,-0.009,-0.011,104.0,109.0,103.0,13.4,1505.3,323.8,-0.7,1.8,2470.435,13.32,0.011,142.1
2020-09-09T08:52:03,42.805,6.029,0.026,0.015,0.003,104.0,108.0,101.0,13.4,1505.3,324.0,-0.7,1.9,2470.435,13.32,0.03,60.0
2020-09-09T08:55:03,42.805,6.029,0.038,0.003,0.003,104.0,108.0,102.0,13.4,1505.3,324.0,-0.7,1.8,2470.444,13.32,0.038,85.5
2020-09-09T08:58:03,42.805,6.029,0.025,-0.019,0.0,104.0,109.0,101.0,13.3,1505.3,325.4,-0.7,1.8,2470.445,13.32,0.031,127.2
2020-09-09T09:04:03,42.805,6.029,0.028,0.004,-0.007,104.0,108.0,103.0,13.3,1505.3,323.1,-0.7,1.8,2470.49,13.31,0.028,81.9
2020-09-09T09:07:03,42.805,6.029,0.006,-0.006,-0.032,105.0,109.0,101.0,13.4,1505.3,325.0,-0.7,1.8,2470.441,13.31,0.008,135.0
2020-09-09T09:10:03,42.805,6.029,0.011,-0.005,0.007,103.0,110.0,103.0,13.3,1505.3,325.4,-0.7,1.8,2470.443,13.32,0.012,114.4
2020-09-09T09:13:03,42.805,6.029,-0.012,0.004,-0.02,103.0,111.0,102.0,13.3,1505.3,323.9,-0.7,1.8,2470.497,13.32,0.012,288.4
2020-09-09T09:16:03,42.805,6.029,0.032,0.013,0.025,104.0,108.0,102.0,13.3,1505.3,326.1,-0.7,1.9,2470.467,13.32,0.034,67.9
2020-09-09T09:19:03,42.805,6.029,0.005,-0.006,0.016,104.0,109.0,101.0,13.4,1505.3,325.3,-0.7,1.8,2470.454,13.32,0.007,140.2
2020-09-09T09:22:03,42.805,6.029,0.003,-0.001,-0.024,106.0,108.0,102.0,13.4,1505.3,326.3,-0.7,1.8,2470.447,13.32,0.003,108.4
2020-09-09T09:25:03,42.805,6.029,0.02,0.015,0.009,105.0,109.0,102.0,13.4,1505.3,324.6,-0.7,1.9,2470.477,13.32,0.025,53.1
2020-09-09T09:28:03,42.805,6.029,0.018,0.011,0.03,104.0,107.0,103.0,13.4,1505.3,326.5,-0.7,1.8,2470.454,13.32,0.021,58.6
2020-09-09T09:31:03,42.805,6.029,0.023,-0.013,0.001,104.0,110.0,103.0,13.3,1505.3,326.8,-0.7,1.8,2470.446,13.32,0.026,119.5
2020-09-09T09:34:03,42.805,6.029,0.011,0.012,-0.004,105.0,110.0,101.0,13.3,1505.3,323.0,-0.7,1.8,2470.492,13.32,0.016,42.5
2020-09-09T09:37:03,42.805,6.029,0.04,0.006,0.018,106.0,111.0,103.0,13.4,1505.3,323.4,-0.7,1.8,2470.442,13.32,0.04,81.5
2020-09-09T09:40:03,42.805,6.029,0.029,0.001,0.008,105.0,111.0,103.0,13.3,1505.3,326.3,-0.7,1.8,2470.469,13.32,0.029,88.0
2020-09-09T09:43:03,42.805,6.029,0.016,-0.01,0.011,104.0,111.0,101.0,13.4,1505.3,327.6,-0.7,1.8,2470.47,13.32,0.018,122.0
2020-09-09T09:46:03,42.805,6.029,0.03,0.002,-0.003,105.0,112.0,103.0,13.3,1505.3,326.5,-0.7,1.8,2470.468,13.32,0.03,86.2
2020-09-09T09:49:03,42.805,6.029,0.025,0.005,-0.011,105.0,113.0,102.0,13.3,1505.3,327.2,-0.7,1.8,2470.422,13.32,0.025,78.7
2020-09-09T09:52:04,42.805,6.029,0.023,-0.004,-0.039,104.0,114.0,101.0,13.4,1505.3,326.3,-0.7,1.8,2470.525,13.32,0.023,99.9
2020-09-09T09:55:03,42.805,6.029,0.024,-0.018,-0.022,105.0,113.0,102.0,13.4,1505.3,324.8,-0.7,1.9,2470.469,13.32,0.03,126.9
2020-09-09T09:58:03,42.805,6.029,0.018,-0.027,-0.022,104.0,111.0,102.0,13.4,1505.3,323.7,-0.7,1.8,2470.45,13.32,0.032,146.3
2020-09-09T10:04:03,42.805,6.029,0.041,-0.002,0.039,104.0,114.0,102.0,13.3,1505.2,324.1,-0.7,1.8,2470.506,13.3,0.041,92.8
2020-09-09T10:07:03,42.805,6.029,0.004,0.018,-0.005,105.0,113.0,102.0,13.4,1505.3,325.7,-0.7,1.9,2470.489,13.31,0.018,12.5
2020-09-09T10:10:03,42.805,6.029,0.018,0.002,-0.017,105.0,112.0,103.0,13.3,1505.3,327.7,-0.7,1.8,2470.505,13.31,0.018,83.7